Commit Graph

102 Commits

Author SHA1 Message Date
2daffcca64 Driver Payslip : ps 2025-02-10 09:55:01 +00:00
45368dec10 Driverpayinputs : ps 2025-02-07 11:55:16 +00:00
aa1feea067 Merge branch 'new_theme' of bitbucket.org:venbainformationtechnology/ria into new_theme 2025-02-05 11:59:52 +00:00
ba65f512ff Driver Module : ps 2025-02-05 11:59:39 +00:00
vadivelJ96
b93073e96d stock module latest today vadivel J 04-02-2025 2025-02-04 17:42:11 +05:30
vadivelJ96
830db88b7b stock module latest today vadivel J 25-01-2025 2025-01-25 17:26:48 +05:30
vadivelJ96
10557af01b stock module latest today vadivel J 24-01-2025 2025-01-24 12:48:53 +05:30
vadivelJ96
c929246f54 stock module latest today vadivel J 16-1-2025 2025-01-16 10:46:05 +05:30
vadivelJ96
e0f3cec801 stock module latest today vadivel J 08-1-2025 2025-01-08 16:54:14 +05:30
5f5ebb22ec CHANGES by client : GWM 2025-01-04 18:05:29 +05:30
vadivelJ96
19137a3098 stock module 1 vadivel J 31-12-2024 2024-12-31 14:09:18 +05:30
vadivelJ96
ae5ed3ce05 master module 3 vadivel J 30-12-2024 2024-12-30 12:30:06 +05:30
b3c03ff6ba Sales : GWM 2024-12-24 17:34:05 +05:30
9fb782b4b7 Sales , hr 2024-12-24 09:54:02 +05:30
vadivelJ96
3da23bebab igr module changes-1 vadivel J 17-12-2024 2024-12-17 10:12:45 +05:30
vadivelJ96
4f4d2747e9 stock module changes-1 vadivel J 11-12-2024 2024-12-11 18:46:30 +05:30
vadivelJ96
bcea9f851a master detail module changes-1 vadivel J 09-12-2024 2024-12-09 16:34:03 +05:30
vadivelJ96
67407c10a9 master module changes latest vadivel J 06-12-2024 2024-12-06 17:52:56 +05:30
vadivelJ96
369446b2c6 Gas stock details changes-6 vadivel J 28-11-2024 2024-11-28 15:43:02 +05:30
vadivelJ96
fc82edfcfd changes in amendment purchase order-1 vadivel J 25-11-2024 2024-11-25 18:20:28 +05:30
vadivelJ96
387c2af713 changes in master details-final vadivel J 21-11-2024 2024-11-22 13:50:58 +05:30
vadivelJ96
dd515fafb6 changes in master details-4 vadivel J 21-11-2024 2024-11-22 11:15:28 +05:30
vadivelJ96
599e3efd7b changes in master details-3 vadivel J 21-11-2024 2024-11-21 18:12:24 +05:30
vadivelJ96
14d177c493 changes in master details-2 vadivel J 21-11-2024 2024-11-21 16:37:40 +05:30
vadivelJ96
36a8ac8ccc changes in master details-1 vadivel J 21-11-2024 2024-11-21 13:30:48 +05:30
vadivelJ96
76ca4b7ab0 changes in master details-5 vadivel J 20-11-2024 2024-11-20 16:53:05 +05:30
vadivelJ96
23f90d518d changes in master details-4 vadivel J 20-11-2024 2024-11-20 14:36:16 +05:30
vadivelJ96
2987240c53 changes in master details 2024-11-20 11:00:48 +05:30
vadivel J
d5574c72f4 changes in master details -vadive j 2024-11-19 16:44:29 +05:30
vadivel J
b193589451 changes in stock module -vadivel j 2024-11-11 18:00:52 +05:30
0a7eed3483 Merge conflit : GWM 2024-11-08 11:49:14 +05:30
dd5f71886b Power module : GWM 2024-11-08 11:45:12 +05:30
vadivel J
590e2fd1ec resin stock changes -vadivel J 2024-11-08 11:10:04 +05:30
vadivel J
c6821967d6 finished dust and rough module 2024-11-07 17:25:48 +05:30
vadivel J
2e9d7a914d invoice listing 2024-10-25 15:36:48 +05:30
vadivel J
877db92512 started bag stock sub module 2024-10-22 17:34:34 +05:30
vadivel J
c96e12221b stock module changes 2 -vadivel J 2024-10-22 12:41:56 +05:30
vadivel J
090f91ebf3 stock module changes -vadivel J 2024-10-22 12:40:15 +05:30
3426ca1b04 Merge : GWM 2024-10-22 09:01:58 +05:30
10445cf4c2 factoryVehicle : gwm 2024-10-22 08:38:45 +05:30
vadivel J
d14dee5b87 working on incoming silica module -vadivel J 2024-10-19 14:30:18 +05:30
vadivel J
f334492a8b Merge branch 'new_theme' of bitbucket.org:venbainformationtechnology/ria into new_theme 2024-10-18 17:31:53 +05:30
vadivel J
a3275490cd finished coating machine details 2024-10-18 17:31:45 +05:30
8b6ea09efb CHANGE in drier machine : GWM 2024-10-18 16:07:28 +05:30
75b19a7323 Stock module : GWM 2024-10-17 09:57:40 +05:30
vadivelJ96
69d869c263 IGR listing fixed-2 2024-10-16 19:07:26 +05:30
vadivelJ96
c105e7b4dd IGR listing fixed 2024-10-16 18:38:06 +05:30
vadivelJ96
9ad4212f5f purchase order listing tables in month wise 2024-10-16 17:41:11 +05:30
vadivel J
e9f221f1ca error in po revenue -vadivel J 2024-10-14 15:41:38 +05:30
vadivelJ96
407249994e minor changes-2 -vadivel J 2024-10-13 01:08:13 +05:30